RH
78 75 75 77 76 73 72 71 71 74 75 75 77 80 79 76 75 75 75 74 74 76 76 77 78 79 79 79 78 78 76 75 79 81 78 78 81 83 85 86 87 87 86 84 81 81 83 83 81 81 79 79 77 74 72 73 74 74 75 76 75 77 83 82 77 73 71 72 71 67 68 68 66 69 69 65 67 69 72 73 66 67 77 79 79
76 71 72 73 72 74 76 75 74 76 79 79 79 80 80 78 75 75 76 76 76 78 80 80 78 77 79 79 76 76 73 71 77 81 80 80 82 82 83 84 86 86 86 85 83 82 84 84 82 81 79 79 78 74 71 71 71 70 71 72 72 75 81 81 78 76 72 73 74 69 70 71 65 67 72 68 70 75 77 73 65 68 77 77 77
71 66 67 67 69 75 79 79 78 78 79 79 77 76 77 79 77 76 78 78 78 77 78 79 77 73 74 74 71 71 70 70 75 78 77 78 81 82 81 83 86 85 84 83 81 80 82 82 81 79 78 78 77 75 73 72 71 70 69 72 72 73 78 80 80 79 73 73 74 68 68 73 68 67 72 73 74 78 78 71 63 66 75 75 75
70 66 66 68 74 79 79 79 80 80 80 78 76 73 73 76 77 78 78 77 77 76 74 74 73 71 70 69 68 68 67 67 71 74 75 75 78 80 80 82 83 83 83 82 81 81 82 82 80 80 80 80 79 77 76 75 75 74 73 75 77 74 78 81 81 81 78 76 76 73 73 75 71 69 72 74 75 77 74 65 62 70 75 71 72
74 73 74 78 83 83 79 79 81 81 80 78 76 72 72 75 77 78 78 76 76 76 74 72 70 69 69 68 68 68 66 66 66 70 74 74 73 75 77 78 79 80 81 80 80 82 83 82 81 81 83 83 79 76 76 76 76 76 74 75 78 77 78 81 81 83 82 79 77 78 79 77 72 72 75 75 75 77 75 64 60 71 76 68 68
76 78 82 86 90 88 84 84 84 80 78 78 78 76 74 75 75 76 76 75 75 75 75 76 73 70 69 69 69 68 67 67 65 65 70 71 70 70 72 74 75 76 78 78 80 81 82 82 82 82 83 82 78 75 76 78 76 75 74 75 77 78 79 80 82 84 83 80 78 78 77 75 73 75 77 76 73 75 72 62 57 68 76 72 68
72 75 79 85 90 90 87 86 84 82 79 76 76 78 78 76 74 74 75 74 74 73 73 75 74 71 70 69 68 67 65 65 64 61 63 65 65 66 68 71 73 74 74 74 76 79 80 80 81 82 82 80 78 76 76 77 76 74 75 77 78 78 75 75 80 81 79 77 75 74 74 73 74 75 76 75 77 79 72 60 55 63 74 78 75
70 72 76 82 86 86 86 87 84 79 75 72 72 75 78 78 76 75 75 73 72 71 70 72 72 72 72 69 65 64 63 62 61 59 59 60 61 62 64 67 70 73 72 71 74 75 75 77 78 79 79 77 76 77 77 77 77 76 76 76 78 78 74 73 76 78 76 73 71 72 74 74 76 77 77 76 78 80 73 63 58 60 70 80 80
73 76 78 80 79 78 79 82 80 74 71 71 73 74 75 77 76 75 74 73 72 70 69 70 70 70 70 66 62 61 62 61 59 57 59 61 63 65 67 67 68 71 70 70 73 73 71 73 75 75 75 74 73 72 72 72 73 75 78 80 83 84 80 78 79 81 79 74 72 75 74 73 75 77 75 74 75 75 71 67 63 60 63 75 82
79 83 84 81 79 78 78 77 76 76 75 74 74 75 75 76 74 70 70 71 71 70 69 70 71 69 66 64 61 60 63 64 60 57 58 61 64 69 71 69 67 70 70 69 72 73 72 74 74 72 70 71 72 72 70 69 69 70 75 84 89 91 88 83 80 80 80 76 72 71 69 68 71 73 71 72 74 75 71 66 63 62 62 69 79
80 85 88 87 87 88 87 83 82 81 79 76 75 76 76 73 72 72 73 75 74 72 73 72 70 67 66 65 64 64 66 66 61 58 57 58 62 71 77 76 73 74 74 72 73 74 74 76 76 74 72 72 72 72 70 67 66 66 68 73 78 81 82 82 80 78 77 75 71 68 67 67 71 73 69 69 72 71 68 64 63 67 67 65 73
83 88 92 92 92 93 91 91 91 89 84 80 78 79 79 78 80 83 84 85 83 79 78 75 69 68 69 68 67 67 66 64 61 59 59 59 61 70 79 84 83 81 80 80 79 78 78 78 77 76 76 71 70 76 80 76 72 70 68 67 66 66 69 73 77 79 78 76 71 68 69 72 75 76 71 70 72 71 69 69 67 68 71 69 73
89 93 93 91 89 88 89 94 96 93 91 90 87 86 87 87 88 88 85 84 83 80 79 77 72 70 70 70 69 69 66 65 65 64 64 64 65 69 77 82 84 84 84 85 84 83 83 83 80 78 76 73 72 77 81 77 75 74 71 67 64 62 62 63 66 72 79 80 74 71 73 77 79 80 77 74 73 71 68 69 71 72 75 74 75
90 90 90 90 88 85 88 94 96 95 96 97 97 96 93 88 87 87 83 79 78 74 73 73 70 69 73 75 75 74 72 71 71 70 70 69 69 72 77 80 84 86 86 86 86 86 86 87 85 81 79 80 78 73 69 67 69 73 73 73 73 71 68 66 65 69 76 79 76 75 81 86 85 85 84 76 70 69 67 70 75 78 79 79 80
90 88 86 89 90 89 92 94 96 99 97 96 97 98 95 93 92 88 82 81 80 77 74 73 72 75 80 80 80 80 77 77 77 77 77 76 74 76 77 79 85 89 89 89 90 90 90 91 90 86 81 79 73 68 69 70 68 69 70 71 77 82 79 74 74 78 82 83 81 80 85 90 88 87 84 73 65 63 62 65 72 77 81 85 85
94 93 90 91 92 93 95 94 95 99 98 94 94 93 94 97 92 82 79 82 83 81 83 84 83 87 89 88 89 89 83 82 84 83 83 82 81 83 83 82 86 89 91 92 92 92 93 92 92 91 89 87 80 75 78 78 73 72 72 69 76 85 81 72 73 79 84 86 84 83 87 90 89 85 78 67 61 60 62 67 73 76 79 81 78
100 98 97 98 97 95 94 93 95 99 98 95 92 89 92 97 93 84 84 88 88 86 91 95 95 96 96 94 96 96 90 89 90 89 89 89 90 91 91 91 93 94 94 94 94 94 94 93 93 94 92 93 92 88 88 88 83 78 74 72 79 88 83 77 80 84 85 85 85 86 89 89 85 79 68 60 59 61 66 72 73 72 72 70 68
100 99 99 100 100 97 95 95 98 99 98 96 92 90 91 92 90 87 86 89 92 92 93 97 99 99 98 97 98 99 97 97 96 95 94 93 93 93 91 90 92 94 93 93 92 92 92 91 93 96 95 94 95 95 95 96 93 85 81 82 87 90 86 79 79 81 80 79 78 79 78 71 66 62 56 56 61 64 69 72 68 66 65 61 62
100 100 100 100 100 99 98 98 98 97 97 97 94 92 92 89 88 91 91 93 97 98 97 99 100 99 100 99 99 98 97 96 93 92 90 88 87 86 85 85 86 87 86 85 85 86 89 90 89 88 90 92 94 96 97 97 95 92 92 93 92 93 92 83 78 81 80 70 63 63 61 55 54 56 56 58 62 64 70 72 68 65 62 57 58
100 99 99 100 100 100 100 100 99 97 98 100 98 96 96 90 88 91 95 97 99 99 98 99 99 99 99 97 95 93 91 87 84 80 78 77 77 78 79 78 75 74 74 79 85 88 90 94 92 85 87 91 93 97 99 98 97 97 98 100 97 95 95 88 83 83 79 67 60 59 58 58 61 68 72 72 70 69 72 72 66 62 58 54 53
98 96 96 97 97 95 93 93 92 92 92 94 96 99 99 95 92 92 95 98 100 99 98 98 98 98 97 94 89 84 79 75 70 66 62 60 57 55 54 50 45 45 49 61 77 84 85 91 92 85 85 89 91 95 100 99 98 96 95 96 97 94 90 84 80 75 69 66 63 58 58 64 70 74 77 77 75 74 73 69 64 60 56 54 53
93 92 90 88 86 86 85 84 85 86 86 88 95 100 97 93 93 96 97 98 97 97 98 99 99 99 95 88 81 76 73 70 64 59 54 47 40 35 31 27 25 26 27 33 44 50 54 68 82 83 82 84 88 92 96 98 98 95 90 88 90 89 82 74 71 69 64 63 62 59 64 74 77 75 75 76 75 75 71 67 64 60 57 58 60
85 85 82 79 78 79 80 81 82 83 82 84 92 99 97 92 92 96 98 97 97 98 99 100 100 98 90 81 77 76 75 71 64 54 44 37 34 31 26 21 18 17 18 20 21 20 23 41 68 81 80 81 89 91 89 91 92 87 84 84 83 81 77 72 68 66 63 61 59 56 59 67 73 77 80 82 82 79 74 69 65 59 54 56 59
69 69 67 65 64 64 66 68 70 72 74 76 83 91 93 90 87 86 90 93 96 97 97 96 95 91 84 79 79 77 74 74 69 55 41 37 38 37 32 25 17 13 14 13 13 13 13 19 41 64 71 75 84 89 88 91 91 87 87 85 78 75 75 71 66 63 58 53 53 53 54 63 76 83 84 84 82 76 71 68 64 58 55 55 57
55 55 54 52 50 49 51 54 56 59 60 63 69 77 83 86 86 83 85 89 92 91 90 89 88 86 83 80 80 77 75 75 68 54 43 41 40 37 32 25 19 15 14 13 12 13 13 15 30 55 70 71 73 77 79 79 78 77 77 74 73 75 69 58 55 57 55 54 64 74 79 83 87 84 80 80 76 70 67 66 62 60 59 59 61
53 55 55 54 52 49 50 51 52 52 50 50 54 60 69 82 90 89 86 86 87 87 86 84 83 85 85 85 85 84 79 71 59 49 44 39 32 25 21 18 17 15 13 14 13 11 16 32 50 66 76 78 80 84 82 74 70 71 67 59 56 55 51 53 64 74 75 78 87 95 95 88 81 78 78 80 76 72 73 73 71 71 70 68 69
53 56 56 54 53 53 54 55 55 54 52 49 48 47 51 60 72 82 86 86 84 85 86 86 86 86 85 86 89 89 84 74 60 47 38 32 24 19 17 17 17 15 14 14 13 17 36 60 75 80 82 85 89 93 91 86 85 88 85 78 71 64 65 77 88 91 91 93 97 99 97 89 81 79 82 82 78 77 81 85 84 82 80 77 75
50 51 53 52 52 53 55 56 55 53 49 46 44 44 44 42 45 55 68 77 83 87 90 91 91 90 89 88 89 88 84 75 59 40 30 27 25 23 27 27 22 22 25 21 19 37 66 81 83 83 82 81 82 84 86 88 89 89 87 88 89 88 88 89 87 86 91 93 92 92 93 89 84 83 83 82 78 76 80 85 85 81 79 80 80
49 49 51 52 53 54 54 55 54 51 49 48 50 53 54 51 44 39 39 44 56 72 86 93 94 92 88 81 75 72 67 56 41 31 31 37 43 45 45 40 32 37 46 42 39 60 83 85 79 79 79 77 78 79 81 84 86 86 86 86 87 89 89 85 83 85 89 89 87 86 85 82 82 81 78 77 76 74 73 76 76 74 75 79 81
55 56 56 56 54 52 52 53 53 53 54 55 57 58 60 60 57 49 37 28 28 40 57 68 69 67 62 54 46 46 46 40 38 43 48 56 63 62 52 43 42 53 64 64 65 78 86 80 77 79 79 80 82 81 81 82 82 82 83 83 83 84 84 84 84 83 82 81 81 82 81 79 80 79 75 75 75 73 71 70 69 70 72 76 81
60 63 63 60 56 53 53 53 53 53 54 55 57 60 64 66 66 61 53 44 35 33 38 44 45 45 45 43 41 44 49 51 56 63 66 67 68 61 52 51 58 65 72 76 79 83 82 77 78 81 80 80 82 81 81 83 82 81 80 80 80 79 77 77 77 76 74 74 74 74 75 75 75 74 73 73 72 70 69 68 66 67 71 76 80
59 63 63 63 62 61 61 59 57 57 57 56 58 63 68 71 71 69 64 60 54 49 48 51 50 48 47 49 53 58 63 65 67 70 70 70 68 63 60 64 68 71 74 77 80 82 80 77 78 79 78 78 80 79 78 78 79 80 79 78 78 76 73 72 72 70 70 71 70 70 71 70 70 70 69 69 69 68 68 68 66 67 72 76 78
58 63 63 65 68 67 66 66 65 64 63 62 65 69 69 68 70 71 70 66 62 58 57 57 55 53 53 56 61 64 63 61 63 67 70 71 71 70 68 69 71 73 76 80 81 81 79 78 77 78 78 77 78 80 79 79 79 79 78 79 79 76 71 70 69 68 70 72 72 72 72 72 72 72 70 69 69 69 68 69 69 70 74 77 77
66 67 62 61 64 65 65 67 68 67 67 68 71 73 73 72 73 74 72 68 66 65 64 60 57 57 58 59 61 60 56 54 56 61 66 70 72 73 72 73 73 73 75 79 82 80 78 78 79 80 79 78 78 79 80 80 79 78 78 79 79 76 71 69 68 69 72 74 74 75 76 76 75 74 74 74 73 72 71 71 73 75 76 75 74
69 68 61 58 61 63 62 62 64 67 70 72 72 72 72 73 73 73 72 71 69 69 69 66 61 59 59 59 59 58 55 52 52 54 60 66 71 73 75 77 77 75 75 78 80 79 78 79 79 80 80 80 80 80 80 80 80 79 78 79 78 77 74 72 70 70 71 73 74 74 75 76 75 73 73 72 73 74 75 73 72 75 76 75 74
67 67 64 61 63 64 62 60 59 61 63 66 69 71 71 68 65 65 68 71 70 70 72 71 65 61 60 60 59 58 57 55 54 54 56 60 66 72 76 76 75 75 76 77 78 78 78 78 78 79 80 80 79 79 78 79 78 77 76 76 78 78 78 78 76 74 73 74 74 73 73 75 76 75 74 73 72 73 75 75 74 74 76 78 78
68 71 71 69 68 68 67 66 64 62 62 65 69 71 70 67 63 60 60 64 66 69 73 74 70 65 64 63 60 59 60 58 55 55 55 56 62 72 77 77 75 75 76 77 77 77 77 77 77 77 76 76 77 77 77 78 77 76 75 76 78 77 76 75 76 76 76 76 76 76 75 74 73 73 73 74 74 72 72 74 74 74 76 78 77
63 66 67 67 70 72 73 73 72 70 69 71 72 72 70 69 68 65 62 62 64 66 70 74 73 70 69 69 64 60 59 58 58 60 60 61 67 75 78 78 77 77 76 77 77 76 76 76 77 76 76 75 75 75 75 75 76 76 76 77 77 76 74 73 75 76 77 76 76 77 77 75 73 71 68 67 72 75 74 75 75 75 76 78 75
63 60 56 57 64 72 75 77 78 78 77 76 75 75 73 70 69 68 67 65 63 63 64 68 69 68 71 74 71 65 61 62 64 67 66 66 70 76 78 77 77 77 77 76 76 76 75 76 78 78 78 78 77 76 75 75 76 78 77 75 75 75 75 75 77 77 76 75 74 75 75 74 74 74 69 66 72 77 76 76 79 79 77 76 76
68 66 59 56 61 69 73 75 75 75 75 74 74 74 75 73 71 70 68 66 65 64 64 65 65 67 70 73 72 69 66 64 67 70 70 70 73 76 77 77 76 76 77 77 76 75 75 76 77 78 78 78 77 76 76 75 75 77 76 74 74 75 75 76 77 76 76 75 75 75 74 74 74 74 71 70 75 79 78 78 81 81 79 78 79
70 71 67 61 60 64 67 67 66 68 70 70 69 69 70 72 73 73 72 70 68 66 65 64 66 68 65 61 63 68 68 67 69 71 71 73 75 77 78 78 77 76 76 76 77 76 75 76 76 76 76 76 76 76 76 76 75 75 75 74 73 73 73 75 77 78 77 75 74 74 75 75 76 76 75 76 79 81 80 80 80 80 79 77 77
66 71 72 68 64 64 64 62 64 69 70 68 67 67 67 68 70 71 72 73 72 70 67 64 66 69 64 56 60 68 69 67 69 70 70 73 77 77 76 78 78 77 76 76 77 77 76 75 75 75 75 76 77 76 76 76 74 73 71 71 70 69 70 71 74 76 75 72 72 74 74 73 74 75 75 75 76 76 76 76 75 73 72 71 72
65 71 74 74 72 71 70 69 70 71 71 71 73 75 75 74 71 70 71 72 72 73 71 65 64 70 68 63 64 70 71 69 70 70 70 73 76 75 75 76 76 76 76 76 76 76 74 73 73 74 76 78 79 77 76 75 72 70 69 70 71 71 70 69 70 71 71 71 73 74 72 70 72 73 72 72 74 74 74 75 74 73 72 72 73
66 74 76 78 80 81 82 81 79 79 81 83 83 82 82 81 76 74 75 75 73 74 73 70 69 74 76 72 70 71 73 73 71 68 68 71 74 74 74 74 74 74 74 74 73 73 72 72 73 74 76 78 79 78 77 74 71 68 69 70 70 70 70 70 70 70 70 71 73 73 71 71 72 73 73 76 79 79 77 76 77 79 79 78 76
72 79 81 83 86 87 87 88 87 87 87 86 82 81 81 80 78 76 76 75 74 74 74 74 74 74 75 76 76 75 76 75 70 64 65 70 72 73 72 71 72 74 74 73 72 72 72 73 73 74 76 78 78 77 77 76 73 71 69 68 68 68 70 72 73 72 72 73 75 74 74 75 77 77 78 81 82 81 80 80 82 84 85 83 80
88 88 86 86 87 87 88 89 88 88 87 84 82 80 78 77 78 79 79 79 80 80 80 79 77 75 74 77 80 79 76 72 66 64 67 70 70 70 69 69 69 70 69 68 69 71 72 72 73 74 75 77 76 75 74 75 74 73 72 71 71 72 74 75 76 75 75 78 81 81 81 80 79 80 84 87 86 85 88 90 89 87 87 85 82
96 90 89 90 88 86 87 87 86 87 87 86 85 84 82 82 83 83 83 84 85 84 82 80 79 77 75 78 82 82 77 72 68 67 68 69 69 69 69 68 67 66 64 65 68 72 74 74 75 75 75 75 75 74 73 72 73 74 75 77 78 77 76 78 80 79 80 83 86 86 85 82 80 82 88 93 91 89 91 92 89 86 86 86 84
91 85 87 89 87 85 85 86 86 86 85 84 83 83 83 84 84 83 84 85 85 84 83 82 81 80 79 81 86 88 85 82 81 77 72 70 72 72 72 70 69 68 66 65 68 72 74 73 74 77 77 75 74 74 73 73 74 76 79 81 79 76 75 77 81 84 87 91 91 88 86 87 89 93 97 99 97 93 92 92 89 87 86 85 83
87 84 85 84 83 84 85 84 83 83 82 82 82 80 80 81 81 81 82 83 82 84 88 89 90 89 88 90 94 94 90 88 89 85 79 77 77 76 75 74 72 71 69 69 69 70 70 69 72 77 78 74 73 73 73 73 74 77 79 80 77 76 76 79 83 88 90 91 90 89 89 91 96 99 100 100 101 100 98 94 91 88 86 85 84
82 83 83 81 81 83 85 84 82 82 81 81 80 79 80 81 81 81 84 84 83 83 87 90 92 93 94 97 100 99 92 86 83 82 81 81 80 78 78 78 76 73 72 73 75 77 76 75 76 78 77 74 73 73 73 75 77 77 78 78 76 76 77 79 83 88 89 86 86 88 91 94 99 101 100 98 99 99 98 95 90 87 85 84 83
74 77 78 79 80 81 81 80 80 80 81 82 81 80 81 81 80 81 84 85 83 84 86 87 87 90 95 98 98 95 91 86 83 81 81 82 81 80 81 80 77 75 76 77 79 80 80 79 79 77 75 75 75 74 74 77 78 77 78 79 78 76 76 78 83 89 88 82 81 85 90 94 98 100 98 95 95 96 98 97 92 87 85 84 83
Wind_Speed
23 25 23 21 23 23 23 22 20 18 17 16 14 13 13 12 12 11 10 11 10 10 11 10 10 10 10 9 9 9 10 10 10 10 10 10 10 10 9 9 10 10 9 9 9 8 8 8 8 8 8 8 8 8 8 8 8 8 8 8 8 8 7 7 7 8 7 6 5 5 5 7 7 6 7 8 8 9 9 9 11 10 8 7 9
25 27 25 24 25 23 22 22 21 19 17 16 15 13 13 13 12 11 11 11 11 11 10 10 10 10 10 9 9 10 11 11 10 9 10 11 11 10 9 9 10 10 10 10 10 9 9 9 8 8 8 8 9 9 9 9 9 9 8 8 8 8 7 7 7 8 8 6 5 4 4 6 7 6 6 8 8 8 8 8 9 8 8 7 8
28 29 27 27 26 23 22 21 21 20 17 16 15 14 13 12 12 12 11 10 11 11 11 10 10 10 9 9 10 10 10 10 10 10 11 11 11 10 9 9 9 9 10 10 9 9 9 9 9 8 8 8 9 9 10 10 10 10 10 9 9 9 7 8 8 8 8 7 6 5 4 6 7 6 6 7 6 6 7 7 7 7 7 7 7
29 29 28 27 25 24 23 22 20 19 17 16 16 15 13 12 12 12 11 10 10 11 11 11 10 10 9 10 10 10 10 10 10 11 11 11 11 11 11 10 10 10 10 10 10 9 9 10 10 9 9 9 9 9 9 10 9 10 10 10 10 9 8 8 9 8 8 8 6 6 6 7 7 6 6 6 5 5 7 7 6 6 6 6 6
26 27 26 25 23 24 24 23 21 21 20 18 17 16 14 13 12 12 11 11 10 10 11 11 11 10 10 10 10 10 10 10 10 11 10 11 11 11 12 12 12 12 12 12 12 11 11 11 10 10 10 10 10 10 10 10 10 10 10 9 9 9 8 9 9 8 8 8 7 7 7 7 7 6 6 6 5 4 6 6 5 6 6 6 6
25 24 23 21 20 22 22 21 21 22 22 21 18 16 14 13 13 12 12 11 10 10 10 10 11 11 11 11 11 11 11 11 11 11 11 11 12 12 13 13 13 13 12 12 12 12 11 12 11 11 11 11 11 11 11 11 11 10 11 10 10 9 9 9 9 8 9 9 8 7 7 6 6 5 5 5 5 4 5 5 5 5 6 6 6
27 26 25 22 20 20 20 20 20 21 21 22 20 17 14 13 13 12 12 12 11 11 10 10 11 12 12 12 12 12 13 13 13 13 12 13 14 14 14 14 14 14 14 14 13 12 12 12 12 12 12 12 12 12 12 11 12 11 11 11 10 10 10 9 9 9 9 9 9 8 7 6 6 5 5 5 4 3 4 5 4 5 5 5 5
30 29 28 25 23 23 21 20 21 22 22 21 20 19 16 14 12 12 12 11 11 11 10 10 10 11 12 12 13 13 13 14 14 13 13 14 15 16 16 16 15 14 15 15 14 15 15 14 13 13 13 14 14 13 12 12 12 12 11 11 10 10 10 10 9 9 9 10 9 8 7 6 6 6 5 5 4 3 3 4 4 4 3 3 4
29 28 27 27 27 27 25 23 23 24 23 21 20 19 18 16 14 13 13 12 11 11 11 10 10 10 10 11 11 13 13 14 14 14 14 14 14 15 16 16 16 15 16 16 15 16 17 16 15 15 15 16 16 15 15 14 14 12 11 11 10 10 10 10 9 9 9 10 9 8 7 7 7 6 5 5 4 3 3 3 2 3 3 1 2
26 24 24 27 28 26 26 26 25 24 23 21 20 19 18 17 15 14 14 13 12 11 11 10 9 9 10 10 11 12 11 12 13 14 14 14 15 14 15 16 17 17 17 17 16 16 17 17 17 18 18 18 17 17 17 17 16 15 14 12 11 10 10 10 10 11 10 10 10 9 9 8 7 6 6 5 4 3 3 3 3 3 3 1 1
25 22 20 19 18 18 19 21 22 23 23 21 20 18 18 17 16 14 13 12 12 12 11 11 10 9 8 8 8 7 7 8 11 11 12 13 14 14 14 14 15 15 16 17 17 16 16 16 16 17 18 19 18 19 19 19 18 17 16 15 14 13 12 12 11 11 11 11 11 11 10 10 8 6 6 5 4 4 3 4 4 3 2 2 2
22 19 15 13 12 10 11 13 14 17 19 20 19 18 16 14 13 11 9 8 9 9 8 8 8 7 6 5 4 4 6 8 10 10 10 11 11 11 11 11 11 12 13 14 15 15 15 16 15 15 17 19 19 18 18 18 18 18 18 17 16 16 15 15 14 13 12 12 12 12 11 10 8 7 7 6 5 4 4 4 4 3 3 3 2
18 15 14 15 16 15 13 11 11 12 13 14 14 14 13 12 9 8 9 9 8 7 6 7 7 7 7 7 6 7 9 10 10 11 11 12 11 11 11 12 12 11 11 12 13 14 15 16 16 16 16 18 19 17 17 18 18 18 19 18 17 17 17 17 17 16 15 14 13 13 12 10 8 7 7 7 6 5 5 5 4 3 3 3 2
20 18 18 17 17 17 14 12 12 10 8 6 7 9 11 10 8 6 7 9 9 10 11 12 12 11 9 8 7 8 9 9 10 11 11 12 12 11 11 12 12 12 12 12 12 13 13 14 15 16 16 16 17 18 20 21 20 19 20 19 17 17 17 17 17 17 17 17 16 14 12 11 10 8 8 8 7 6 6 6 5 3 2 2 3
22 23 23 19 16 15 13 12 12 9 7 7 5 5 6 5 5 4 4 6 8 10 12 13 12 10 9 8 7 8 9 9 9 10 10 11 12 11 11 12 11 10 11 12 11 12 12 12 14 17 17 18 20 20 20 22 22 22 22 21 19 17 17 17 16 15 15 16 16 15 12 11 11 9 8 8 7 6 7 8 8 4 3 4 4
20 21 21 19 17 15 13 14 14 10 8 11 9 7 7 7 7 7 8 8 9 9 8 8 8 8 7 8 6 7 9 10 10 11 12 12 12 11 11 11 11 10 11 11 11 11 12 12 13 15 16 18 20 21 21 23 25 25 25 26 22 17 18 21 19 15 15 15 15 15 14 13 12 10 8 8 6 6 6 6 6 5 6 5 4
17 18 18 17 16 15 13 13 14 11 11 12 10 9 9 8 7 8 9 8 8 7 5 4 4 6 7 8 8 9 12 13 13 12 13 13 13 12 12 12 12 12 12 11 12 12 13 14 15 15 16 17 19 20 21 23 25 25 27 27 22 16 17 20 19 17 16 15 15 15 14 13 12 10 9 8 6 5 5 5 5 6 5 4 4
15 18 18 17 16 15 13 13 13 13 12 11 11 8 7 6 6 7 6 4 4 5 5 4 3 4 6 7 7 8 9 10 10 11 12 13 13 13 14 14 14 13 14 15 16 16 16 17 18 18 18 19 20 20 20 20 23 25 26 25 22 18 18 18 18 16 14 13 12 11 10 10 10 9 9 8 6 6 6 6 5 5 5 5 3
14 18 19 18 16 15 15 15 14 13 11 11 10 8 6 6 5 5 4 3 3 4 4 4 4 3 2 3 4 5 5 6 7 9 10 11 11 11 11 12 12 13 14 16 17 16 15 16 18 19 20 21 22 23 22 21 22 24 23 21 20 20 19 17 14 12 10 8 7 7 7 7 8 10 9 8 7 8 8 7 5 5 5 4 3
17 19 20 20 18 17 17 17 16 15 15 14 11 9 9 8 6 4 3 3 3 4 5 4 3 2 1 0 1 1 2 3 5 5 6 6 7 7 7 7 8 9 11 12 12 12 11 11 14 17 19 20 22 24 24 24 26 26 23 21 20 20 18 15 12 10 9 8 6 5 5 6 7 8 9 8 8 9 8 6 4 4 4 3 3
21 22 22 22 22 22 22 21 20 17 16 15 14 13 11 9 7 5 3 3 5 6 6 5 4 4 3 4 4 5 7 8 7 7 7 8 8 8 8 8 9 9 10 10 9 10 10 10 11 15 16 18 20 22 23 23 25 24 20 19 20 20 18 15 12 10 9 7 5 3 2 3 4 6 7 7 8 8 7 6 4 2 1 1 2
25 26 27 26 25 24 24 23 21 19 17 16 14 13 13 13 11 8 6 7 8 8 8 7 6 5 6 7 8 9 10 9 8 8 9 9 9 10 10 10 10 10 11 11 11 11 11 11 11 13 15 16 17 18 19 20 20 18 15 14 17 17 15 14 12 10 7 5 5 3 2 2 1 3 5 7 7 7 7 6 5 4 4 3 3
26 28 28 28 26 25 24 23 22 20 18 16 14 12 13 13 12 9 9 9 9 8 7 7 6 6 7 9 9 9 9 8 8 9 10 10 11 11 12 12 12 12 12 13 13 13 13 12 10 11 11 12 14 14 14 14 14 11 9 9 10 10 10 11 10 7 6 5 6 6 6 5 4 6 7 7 6 7 6 6 7 7 6 6 6
27 27 27 25 24 22 21 21 21 19 18 17 15 13 12 12 12 11 10 9 8 7 6 6 5 5 6 6 6 5 6 7 8 9 10 11 11 12 12 13 14 14 13 13 14 15 15 13 11 10 8 8 9 8 8 9 8 6 6 6 5 5 6 7 6 4 4 5 6 8 10 9 9 12 13 12 10 9 8 8 9 8 8 8 8
26 26 25 23 21 20 20 19 19 18 17 16 16 15 13 12 12 12 10 9 8 6 5 5 4 4 4 3 3 2 4 6 8 9 11 12 12 13 13 14 14 14 14 14 14 15 14 13 11 10 8 5 4 3 2 2 1 2 2 2 2 2 3 6 5 4 4 5 6 6 8 9 11 13 15 14 13 10 9 9 10 9 8 8 8
23 23 22 21 20 20 19 19 18 17 17 17 17 16 14 11 10 9 8 8 7 6 5 4 4 3 3 2 2 3 5 7 9 11 12 14 15 15 15 14 13 13 12 12 13 12 12 10 9 8 7 4 1 1 1 2 4 6 5 4 2 2 3 5 5 5 5 5 6 5 8 11 13 12 13 13 12 11 9 9 10 9 8 8 9
22 21 21 20 20 20 19 18 17 16 16 16 15 15 14 12 11 10 8 7 5 5 5 4 3 2 2 2 3 4 6 8 11 14 16 17 17 16 15 14 13 12 11 10 10 9 8 6 5 6 8 9 7 6 6 5 6 6 6 6 4 3 2 3 4 5 6 7 7 6 7 11 12 11 11 11 11 12 10 8 7 7 7 7 8
22 21 20 20 19 19 17 16 16 15 15 14 14 14 14 13 12 11 9 8 6 5 4 4 3 2 3 4 5 6 6 8 11 15 16 16 16 14 14 13 12 10 10 9 8 6 4 4 5 5 7 8 8 8 9 9 8 9 8 7 6 5 5 5 6 7 8 9 9 8 9 11 11 11 10 10 9 10 10 8 7 8 7 6 6
21 20 19 18 17 17 16 16 15 15 15 15 15 15 14 13 12 11 10 8 7 5 4 3 3 3 3 5 5 6 7 8 11 13 13 13 14 14 13 13 12 10 9 8 6 4 3 3 4 5 5 6 7 8 9 9 10 10 11 10 9 9 9 9 9 9 9 10 10 10 10 11 11 11 11 11 10 9 8 8 7 7 6 5 5
18 17 17 16 15 16 16 16 15 15 14 14 13 13 13 13 12 11 10 9 8 6 5 4 4 4 4 5 5 5 6 8 9 10 11 12 13 12 11 10 10 9 9 7 4 3 4 4 4 6 6 7 9 9 9 10 11 12 13 14 14 13 13 13 13 12 12 12 12 12 12 13 13 12 12 12 11 9 8 7 6 5 5 5 5
15 13 13 14 15 15 15 15 15 14 13 13 12 11 10 10 10 10 10 10 9 8 7 6 6 6 5 5 5 6 6 7 9 10 10 11 11 10 9 9 9 9 8 6 4 4 4 5 6 7 8 8 9 10 10 10 11 12 13 16 17 18 18 17 16 15 14 14 14 14 13 13 13 13 12 11 10 9 8 7 6 5 5 5 4
15 12 12 12 12 13 12 12 12 12 11 11 11 10 7 6 7 8 8 8 8 8 7 7 7 7 7 6 6 7 7 8 9 9 10 11 10 10 9 9 9 8 6 5 5 5 6 6 7 7 8 8 9 9 10 11 11 12 13 15 17 19 19 18 17 16 15 15 14 14 13 13 12 12 11 10 9 8 7 7 6 6 5 5 4
15 12 11 11 10 10 9 9 9 9 9 9 9 9 7 6 6 5 5 5 5 5 5 6 6 6 6 6 6 7 7 8 9 9 10 11 11 10 9 8 8 7 5 5 6 7 6 7 8 8 8 9 9 10 11 12 12 13 14 15 16 17 17 16 14 15 15 14 13 13 12 11 10 9 9 8 7 7 7 7 6 6 5 4 3
13 12 12 11 10 9 9 8 7 7 7 7 7 6 7 6 6 5 4 4 4 4 4 4 3 4 4 4 4 5 6 7 8 9 10 10 10 9 7 7 7 6 7 8 9 8 8 9 9 9 10 10 10 11 12 12 12 13 13 13 13 14 14 13 13 13 12 12 11 11 11 10 9 8 8 8 7 7 7 6 6 6 5 4 3
12 11 12 13 12 11 11 10 9 7 6 6 6 6 6 5 5 5 5 5 5 4 2 2 2 2 2 2 2 2 4 5 7 8 8 8 7 6 5 6 7 8 10 12 11 10 10 11 11 11 11 11 11 11 11 11 11 11 10 10 10 11 11 11 11 11 11 10 10 10 9 9 9 8 8 7 6 5 5 5 4 4 4 4 5
11 10 11 12 12 11 12 12 11 10 8 7 7 6 6 7 7 6 5 6 6 5 4 3 4 4 4 3 2 2 2 3 5 7 7 6 5 3 3 5 6 8 10 11 11 11 11 11 11 11 11 10 10 11 10 10 11 10 10 9 9 9 9 9 9 10 9 9 9 9 8 8 8 7 7 6 6 5 4 4 4 4 3 4 5
11 10 9 10 10 10 10 10 11 10 10 8 7 7 7 7 7 7 7 6 6 6 5 5 5 6 6 6 6 4 3 4 5 5 6 5 4 1 3 5 6 7 8 8 9 10 11 10 10 10 10 10 9 9 9 9 9 9 9 8 8 8 7 7 7 8 7 7 7 7 7 7 7 7 6 5 5 4 4 4 4 4 3 4 4
11 10 10 10 9 9 9 9 9 9 8 8 7 7 7 7 7 7 7 6 6 7 6 5 5 6 7 8 8 7 5 4 4 4 4 4 2 2 4 5 6 7 8 8 8 9 9 9 9 8 8 8 8 7 7 7 7 6 7 7 6 6 6 6 6 7 6 6 6 6 6 7 7 7 7 6 5 5 5 5 4 4 4 4 4
9 9 10 10 9 9 8 7 7 7 7 6 7 7 7 8 8 7 7 7 7 7 7 7 7 7 7 8 9 8 7 5 3 1 1 0 2 4 4 5 6 7 8 8 8 8 8 8 7 7 7 7 6 6 6 5 5 5 5 4 4 4 5 5 5 5 5 5 5 5 6 7 7 7 6 6 5 4 4 4 4 4 4 4 3
7 7 8 9 8 7 7 6 6 6 7 7 7 7 7 8 9 9 9 9 8 8 8 8 8 8 8 9 10 10 8 6 5 4 2 2 4 5 5 5 6 7 8 7 7 7 6 6 6 6 6 5 5 5 4 4 4 4 3 3 3 4 4 4 4 4 5 5 5 6 6 6 6 6 5 5 4 4 4 4 4 3 4 4 4
7 7 7 8 8 7 6 6 6 7 7 7 8 8 8 9 9 10 11 11 11 11 11 11 10 10 11 12 13 13 11 8 6 5 4 5 6 6 6 6 6 7 7 7 6 6 6 5 5 5 4 4 4 3 3 3 2 2 3 3 3 3 3 4 4 4 5 6 6 7 7 7 6 6 5 5 5 4 4 3 3 3 3 3 3
8 7 7 7 8 8 7 7 8 8 8 8 8 8 9 9 9 9 10 11 12 13 14 15 13 13 14 15 14 15 13 10 8 7 6 6 8 8 8 8 7 7 7 6 6 6 5 5 4 4 3 3 3 3 2 2 2 2 2 2 2 2 3 3 4 5 6 6 7 8 8 8 7 6 5 5 5 4 4 3 4 3 3 3 4
8 8 7 7 7 7 8 8 9 9 9 9 9 9 9 9 10 10 10 10 11 12 14 16 16 15 15 16 15 14 13 11 10 10 9 9 10 10 9 9 8 8 7 7 6 5 5 4 4 4 3 3 3 3 3 2 2 2 2 2 2 3 3 4 5 6 7 8 8 8 8 7 6 6 5 5 5 4 4 4 4 4 4 4 4
9 8 8 7 7 8 8 8 8 9 9 10 10 10 10 10 10 10 10 10 11 11 12 15 15 14 13 15 15 15 13 12 12 13 13 13 14 13 12 11 10 9 8 7 6 5 5 4 4 4 4 3 3 3 3 2 2 2 2 2 2 3 4 5 6 8 9 9 8 8 7 6 6 6 5 5 5 4 5 4 4 4 4 4 4
7 7 7 6 7 7 8 8 9 9 9 10 11 11 11 11 11 11 11 11 12 12 13 14 15 14 12 12 14 14 14 14 15 16 17 18 18 17 15 14 12 10 9 7 6 5 5 4 4 4 4 4 3 3 3 2 2 2 2 2 3 4 5 6 7 8 9 8 8 7 6 6 6 6 5 5 5 5 5 5 4 4 4 4 4
5 5 6 6 6 7 7 8 9 9 10 11 11 12 12 12 11 12 12 12 13 14 14 14 15 15 13 11 13 16 18 18 18 18 19 21 21 20 18 16 14 11 9 8 6 6 5 5 5 4 4 4 3 3 2 2 2 2 2 2 3 4 5 7 8 8 8 7 6 6 6 6 6 6 6 6 5 5 5 4 4 4 4 4 5
5 6 6 6 6 7 7 8 9 9 10 10 11 11 12 12 12 12 12 12 12 13 14 14 14 15 14 12 12 15 19 21 23 24 24 24 22 20 17 15 13 12 10 8 7 6 5 5 5 4 4 3 2 2 1 1 0 1 1 3 3 4 6 7 8 8 7 6 6 6 6 6 6 6 5 4 4 4 4 4 4 4 4 5 5
6 7 6 6 6 7 7 7 8 8 8 9 9 10 11 11 11 11 11 12 12 12 13 14 14 13 12 11 10 9 12 14 17 20 23 23 19 17 15 13 12 11 9 8 7 6 5 5 5 5 3 2 1 1 2 2 2 1 1 2 4 6 7 7 7 7 7 6 5 6 6 6 5 4 4 3 3 4 4 4 4 4 4 5 5
8 8 7 7 8 8 8 8 8 8 8 9 9 9 10 10 10 10 10 10 10 10 11 11 11 11 10 8 6 6 9 11 11 13 17 18 16 14 12 11 10 9 8 6 5 5 4 4 4 4 3 1 0 2 3 4 3 1 0 3 5 7 7 8 9 10 9 7 6 6 6 5 4 3 3 3 3 3 3 4 4 4 5 5 5
11 10 9 9 9 9 8 8 8 9 10 10 9 10 10 10 10 10 10 10 10 10 9 9 8 8 7 5 4 4 6 10 12 12 12 12 11 10 9 8 6 6 6 5 4 4 3 3 4 3 2 1 1 3 5 4 3 3 3 5 6 7 7 9 11 12 10 8 7 6 5 4 4 3 3 3 3 3 4 4 4 5 5 5 5
12 11 10 9 9 9 9 9 9 9 10 10 10 10 10 10 10 10 10 9 9 9 9 9 7 6 4 3 2 1 4 9 12 11 8 7 5 5 5 4 4 4 3 3 2 2 2 2 2 2 2 2 3 4 5 3 4 3 3 4 5 6 6 9 12 12 10 9 8 6 5 5 4 3 3 4 4 4 4 4 5 5 6 6 6
Wind_Direction
212 216 215 214 216 218 221 225 228 228 229 231 229 228 231 234 236 239 244 248 247 248 250 253 255 255 253 252 253 256 260 262 261 260 263 263 265 269 267 264 262 264 268 271 271 270 270 276 279 276 272 266 264 265 264 266 268 271 270 268 269 261 251 253 266 284 292 295 304 311 331 342 342 342 345 344 344 353 359 360 2 9 19 26 24
213 217 217 218 219 218 219 221 224 225 224 226 228 230 233 237 239 240 241 244 246 246 246 250 254 254 253 254 256 260 265 267 263 259 261 263 265 267 265 264 265 266 269 273 273 270 272 277 279 280 274 267 267 268 269 271 271 273 272 269 271 266 255 255 262 277 286 289 297 302 319 339 339 336 337 340 345 354 2 2 5 11 17 24 29
217 219 219 222 222 219 219 220 222 223 220 221 225 227 230 234 240 241 237 237 241 243 241 244 252 257 257 259 262 266 268 269 265 262 264 265 265 267 267 267 268 269 270 273 275 273 273 276 277 280 278 271 271 270 270 272 272 275 275 271 274 273 261 254 256 267 281 288 293 299 315 332 334 328 328 338 345 355 5 5 7 15 18 23 31
218 219 220 222 221 219 221 221 221 220 218 219 220 220 223 228 235 237 235 234 236 237 238 242 253 260 263 264 267 269 271 269 266 265 267 268 269 269 272 274 273 274 274 274 277 276 274 275 276 277 278 276 273 272 271 272 271 274 276 272 272 273 262 252 252 257 271 280 284 294 306 317 323 321 324 335 338 348 5 11 14 24 27 25 31
218 219 219 219 217 218 221 221 221 221 222 222 219 218 218 221 228 233 234 236 236 236 239 246 255 262 265 269 273 275 275 273 271 269 268 270 274 273 274 277 277 277 277 276 276 276 275 275 276 276 276 274 274 275 274 274 274 274 274 271 269 271 266 258 253 248 254 266 277 287 294 303 312 315 319 329 329 333 359 13 21 32 37 34 33
217 217 218 216 215 217 219 218 220 223 227 227 223 219 217 218 224 228 232 235 236 237 240 247 257 263 266 269 274 277 279 280 280 279 275 272 274 275 274 276 279 279 278 275 273 273 273 273 276 277 275 274 276 278 278 277 275 273 273 272 268 268 267 260 253 247 249 258 267 274 281 291 301 304 306 321 326 328 349 5 18 34 43 43 40
216 217 219 217 217 219 217 216 219 222 227 230 229 225 222 223 226 226 229 233 236 238 240 248 259 266 270 272 274 279 282 284 285 284 280 275 274 275 275 274 275 276 276 274 270 270 272 273 275 277 277 277 277 277 277 277 275 274 273 272 269 266 262 256 253 251 252 256 258 260 269 282 288 287 292 304 307 315 346 359 7 22 35 45 44
215 217 218 216 218 221 221 221 224 226 229 232 233 231 228 227 228 228 230 232 235 239 241 248 259 266 270 274 278 281 283 284 285 284 280 277 274 274 274 274 272 274 277 276 271 270 272 273 273 275 279 284 285 281 277 274 273 274 272 268 267 265 261 257 254 253 254 255 255 255 260 270 274 273 276 281 279 284 333 350 351 358 9 37 48
213 214 215 217 221 224 225 225 229 232 233 234 235 235 234 233 234 236 237 236 237 240 242 250 260 265 269 276 280 280 279 279 281 282 280 278 277 274 273 273 272 272 274 274 271 271 275 276 275 276 279 285 287 285 282 277 272 270 269 269 268 266 264 261 258 259 257 253 251 249 252 258 260 259 261 265 271 285 316 333 331 337 338 346 62
213 212 215 219 223 224 225 227 230 232 232 233 235 236 236 236 238 239 240 240 242 244 248 255 262 264 265 271 275 276 276 275 277 280 279 277 276 274 272 274 275 273 273 273 269 269 272 275 278 281 283 283 282 283 285 282 275 268 265 266 266 266 268 265 260 258 255 253 253 252 253 259 257 254 259 261 263 278 301 316 316 325 326 268 164
214 214 217 222 225 226 225 225 227 229 230 233 236 237 237 238 243 245 244 247 249 249 251 256 260 264 265 266 271 272 268 268 274 279 279 278 277 275 273 276 277 273 272 270 268 267 269 272 276 281 283 283 280 279 281 281 276 269 266 268 271 271 270 268 265 261 255 252 255 254 256 259 257 254 261 264 261 270 294 310 306 305 308 275 233
214 211 209 213 219 230 235 229 225 226 231 235 236 238 240 240 245 246 239 241 247 248 255 259 255 256 259 256 260 265 266 274 282 285 284 284 282 278 273 272 273 271 269 267 267 267 269 273 276 277 279 283 284 280 282 286 283 275 271 272 274 274 272 269 266 264 261 258 255 253 252 255 255 251 255 264 267 270 283 293 292 288 285 272 242
206 201 200 205 212 223 234 238 234 227 229 240 246 240 233 229 233 237 236 240 246 252 263 263 249 245 253 257 259 264 268 275 281 284 286 287 287 285 279 274 273 273 271 269 270 271 272 276 279 278 280 286 287 280 279 281 280 277 275 272 272 273 273 271 266 260 259 259 257 254 250 250 254 246 246 260 270 278 288 288 282 281 273 249 216
196 200 203 204 207 213 219 230 240 231 212 229 252 237 220 213 211 218 240 251 252 248 245 244 244 246 251 256 258 260 264 268 273 278 283 286 287 289 286 282 280 278 276 276 276 276 277 278 280 280 282 284 284 280 276 270 264 264 268 269 269 269 269 269 268 261 255 253 255 256 253 252 252 245 247 260 267 277 292 294 286 277 250 206 182
195 201 203 200 201 204 200 207 222 219 174 158 183 223 221 203 185 192 237 250 241 238 237 240 245 248 249 250 252 256 264 271 276 281 285 288 290 292 290 288 287 284 282 283 282 283 283 281 282 285 286 285 286 288 284 272 262 257 259 264 267 266 263 262 259 254 250 246 247 252 255 252 248 244 247 256 262 275 287 290 285 262 195 176 176
194 196 194 194 199 198 193 198 207 205 173 159 170 202 207 191 193 214 223 219 219 226 232 238 245 250 254 256 256 261 271 279 285 287 288 291 294 296 294 293 292 290 289 290 289 288 287 286 287 289 288 287 290 294 288 275 265 256 252 258 263 261 261 262 257 249 247 245 244 246 249 247 245 243 246 251 261 276 281 279 267 221 185 190 194
182 184 179 176 179 182 187 198 197 179 158 160 174 189 185 174 187 212 213 206 212 223 225 233 250 260 263 262 262 267 273 280 286 288 289 291 294 297 298 296 295 294 294 293 293 291 289 290 292 291 289 287 291 298 295 279 266 257 253 255 258 257 259 261 256 247 243 243 242 242 244 249 251 249 252 257 260 259 248 238 222 200 198 218 224
163 168 166 160 159 162 170 176 172 158 152 165 181 187 180 175 195 222 224 214 218 224 224 229 236 244 253 257 262 269 275 284 293 297 299 300 300 301 301 299 298 298 297 297 298 297 296 294 291 286 284 283 285 289 288 275 263 259 259 258 256 257 258 255 249 242 237 234 236 237 242 255 263 261 256 255 250 236 230 232 222 209 223 244 238
125 136 140 142 145 150 156 158 156 150 144 152 165 168 154 146 167 206 212 182 171 178 183 190 186 180 208 247 264 276 287 301 313 316 314 311 309 308 306 305 305 306 306 306 307 306 304 300 294 289 285 283 281 279 276 269 258 254 254 253 250 253 254 250 250 253 245 229 226 235 241 253 272 277 267 254 239 226 222 229 228 219 232 248 228
100 106 110 114 119 123 126 130 134 135 132 132 134 133 127 125 140 171 176 147 131 127 133 149 153 142 145 231 282 310 348 9 12 8 360 354 352 348 343 340 336 334 332 330 326 321 317 310 304 302 296 289 283 276 269 264 257 250 246 243 241 242 243 244 249 256 250 234 221 232 248 254 265 268 257 241 230 219 209 207 209 216 226 224 206
95 98 98 96 97 100 101 103 108 111 114 116 114 111 111 116 130 144 133 110 105 103 106 113 120 117 111 98 91 86 77 68 60 52 45 40 35 26 18 12 5 359 354 348 338 329 328 326 321 319 313 301 291 281 272 265 257 247 238 232 230 230 232 233 234 236 238 235 222 217 261 266 251 247 244 236 220 197 177 162 152 156 170 157 159
89 91 92 90 89 90 91 92 93 92 94 98 99 97 98 104 112 118 114 112 114 108 102 102 103 103 102 99 96 91 83 73 61 52 44 37 29 21 14 7 0 355 349 343 336 330 331 332 331 330 326 316 303 291 282 273 261 245 230 219 217 219 217 211 208 211 217 225 226 208 122 104 197 229 244 240 212 174 152 141 138 134 119 115 128
85 85 86 85 84 83 84 86 88 88 88 89 91 92 96 99 103 105 105 107 110 108 103 102 103 105 106 104 101 92 78 62 48 39 32 24 16 9 2 354 349 344 338 332 328 327 329 330 330 332 332 323 312 299 286 277 265 250 236 221 207 205 205 201 200 204 210 218 219 201 174 165 173 190 201 202 184 166 151 140 143 146 139 139 144
83 82 82 81 80 80 81 82 84 85 84 83 83 85 89 92 94 96 99 103 104 101 100 104 109 109 104 101 99 85 59 41 32 25 17 9 2 356 351 345 339 335 331 326 324 326 328 329 326 325 328 327 318 303 287 276 264 246 244 245 223 201 194 185 180 189 195 194 195 194 194 193 184 179 178 172 169 173 165 152 155 159 153 148 149
82 82 82 82 81 81 80 79 79 80 80 79 79 79 80 84 89 91 92 95 95 93 94 96 97 97 97 95 87 53 25 18 13 7 0 354 346 340 336 334 330 328 325 324 323 324 327 330 326 319 316 311 297 287 279 277 215 157 191 279 280 226 159 134 145 191 202 191 187 183 177 167 159 163 169 171 173 175 171 165 164 163 160 155 148
82 82 83 83 82 80 80 79 77 76 76 76 76 75 76 77 80 82 83 87 91 95 98 98 93 89 82 69 33 4 359 358 354 349 344 339 335 332 329 327 327 325 322 321 321 321 326 334 335 333 340 342 300 225 102 95 96 98 99 93 104 155 132 122 155 195 187 166 167 158 144 144 145 152 164 171 171 168 165 163 158 154 155 148 134
80 80 80 80 79 78 77 77 76 74 72 71 70 70 70 70 72 73 72 74 77 78 82 86 86 75 41 5 346 341 343 345 343 339 337 335 335 336 333 330 331 331 330 329 326 324 334 353 8 16 26 37 48 56 64 73 81 89 100 112 124 146 154 147 155 148 127 126 133 124 126 138 144 150 158 163 162 161 160 156 148 145 145 135 120
83 82 81 79 78 78 77 76 74 72 69 68 68 67 65 64 65 65 64 62 58 53 53 51 41 21 0 348 338 333 338 341 337 335 335 337 340 343 341 339 341 344 344 342 339 341 2 30 40 39 40 48 57 63 69 77 81 84 92 101 106 110 119 128 125 115 105 108 116 115 121 131 134 136 138 136 138 149 157 158 155 151 147 135 113
81 79 78 76 73 71 70 67 65 64 65 64 63 62 59 58 59 58 55 54 53 55 59 55 33 11 356 350 343 336 337 338 336 337 340 342 343 345 342 341 345 352 353 350 353 15 43 50 49 55 62 64 67 68 70 75 78 76 78 83 84 86 94 99 99 100 99 97 97 100 106 111 110 111 114 113 112 123 138 147 151 152 149 136 112
78 75 73 69 65 62 60 57 55 56 58 58 54 51 50 50 50 49 47 44 44 47 52 49 37 24 5 355 354 353 350 349 350 353 353 349 347 347 346 347 351 357 4 11 25 48 60 66 64 62 63 63 65 66 65 66 68 67 69 73 73 73 78 82 83 92 101 101 96 95 95 93 92 95 100 101 98 102 112 119 125 128 120 104 95
73 70 68 65 61 59 58 55 53 52 52 51 48 45 43 41 40 43 44 44 43 44 44 41 35 33 31 25 22 24 22 17 12 9 6 4 3 5 6 4 2 3 12 34 57 61 65 75 73 66 65 65 65 65 65 66 66 65 67 71 73 74 78 80 82 88 95 96 95 95 93 91 90 91 93 94 92 91 93 95 93 89 79 71 71
71 67 64 61 56 54 54 52 51 49 47 45 42 38 36 36 37 38 37 35 37 39 39 36 32 32 37 40 40 40 38 32 27 24 23 23 24 22 16 11 12 17 29 60 74 67 64 71 70 63 63 65 64 63 65 67 68 68 69 70 72 75 79 81 82 84 86 87 86 86 86 86 87 88 89 89 87 82 78 75 70 63 55 49 44
72 70 66 62 57 53 50 47 44 42 39 36 33 30 27 26 26 27 23 21 23 23 22 25 28 29 31 36 44 49 47 42 39 36 31 28 26 22 18 17 22 30 52 77 77 71 69 69 67 64 65 68 69 69 70 69 69 72 74 74 75 78 81 82 81 80 79 79 79 78 76 75 73 73 72 69 66 61 55 49 45 41 37 29 17
67 65 61 59 58 55 51 47 44 40 36 33 29 26 22 15 7 1 355 351 352 350 351 358 9 16 23 31 42 48 47 45 42 37 30 26 22 21 29 40 44 57 83 89 81 77 77 75 72 69 69 70 71 71 71 71 71 72 74 74 76 78 78 77 76 75 73 71 69 67 64 60 57 54 50 44 41 40 36 32 30 25 15 0 340
56 53 48 46 46 45 41 38 36 33 30 27 23 17 11 2 351 342 335 330 327 322 309 301 304 316 337 1 18 29 34 37 37 34 29 23 18 24 53 69 69 74 85 87 84 82 82 81 79 77 74 72 72 71 70 70 68 68 69 69 69 69 67 65 65 65 64 63 62 59 54 49 45 41 36 28 23 22 19 18 17 7 351 337 324
42 39 35 34 34 32 30 28 28 25 20 15 8 1 356 350 342 334 320 310 308 306 290 267 261 260 258 260 270 294 330 353 11 21 25 20 13 21 70 86 86 86 85 85 86 87 85 83 83 82 81 78 76 74 74 72 71 70 69 68 65 63 61 59 59 58 57 55 54 52 47 42 35 27 19 10 5 4 359 351 348 342 331 324 316
37 34 29 24 22 19 16 15 14 12 8 4 356 346 343 342 340 335 325 312 303 299 293 278 260 246 240 245 251 255 271 309 337 357 11 18 20 52 103 103 102 100 94 92 92 91 89 87 86 85 83 81 80 80 78 77 75 72 69 68 67 65 63 60 58 57 55 51 46 42 38 31 21 13 3 349 341 341 337 330 326 320 315 311 303
41 37 30 24 20 15 10 6 3 360 357 352 345 339 335 334 334 334 330 321 307 298 293 284 267 249 239 241 245 246 254 277 310 339 359 18 52 115 122 118 115 110 104 101 100 97 95 92 89 87 85 83 81 79 75 71 69 67 65 67 68 66 61 58 54 52 50 44 35 27 18 8 0 356 350 337 324 320 321 321 319 315 310 306 299
35 29 23 21 20 15 8 3 359 357 353 345 338 333 329 325 324 324 322 319 311 303 297 290 282 271 254 242 237 237 242 250 251 258 324 72 147 151 140 129 124 120 115 111 106 102 99 95 90 86 84 81 77 73 70 68 68 67 66 67 69 65 59 56 53 49 43 35 23 12 2 351 343 339 336 327 315 310 313 314 313 309 303 300 297
16 14 14 17 18 14 8 3 0 360 357 351 344 338 330 323 318 314 310 306 303 299 294 290 285 280 272 259 246 237 236 239 231 216 200 177 168 163 153 141 132 126 121 116 110 104 99 95 90 84 79 76 73 69 69 68 69 72 72 70 69 66 60 55 49 40 28 16 4 354 348 340 331 326 325 322 315 310 311 310 306 302 299 297 298
5 2 5 7 8 6 1 359 360 358 354 349 343 338 332 327 321 314 309 304 300 297 292 287 282 279 280 278 264 248 240 235 223 209 196 181 172 164 153 142 134 128 122 115 109 104 98 92 87 81 76 73 71 69 71 73 77 82 82 74 68 61 52 44 37 25 10 357 347 342 339 337 333 327 325 323 318 310 305 301 297 294 290 289 294
359 356 352 349 351 350 344 342 344 343 340 338 335 331 328 323 317 312 308 303 301 299 295 291 288 285 288 288 272 248 238 232 220 210 201 182 170 165 157 148 139 131 125 117 108 102 96 89 81 72 66 62 58 54 56 58 62 69 68 57 46 32 17 10 8 4 356 348 342 338 333 331 328 324 322 321 315 308 304 302 298 294 289 289 293
347 346 342 337 336 335 331 331 331 328 326 327 325 321 320 317 310 307 303 300 300 298 294 293 291 288 291 293 276 244 229 225 217 207 197 183 175 169 161 154 148 141 133 123 113 104 95 85 76 68 62 58 54 47 43 44 46 45 40 33 31 22 9 358 354 348 343 339 337 334 329 326 323 321 320 317 312 307 306 305 302 299 295 294 297
337 335 332 331 330 328 327 328 326 322 321 321 319 316 316 313 309 306 303 301 301 298 293 294 292 285 284 287 272 242 220 213 211 205 197 188 181 174 168 164 159 150 140 130 120 109 99 91 83 79 77 74 66 58 55 55 46 31 22 27 25 15 1 351 344 339 335 333 332 329 326 324 320 318 318 316 311 309 307 303 301 302 297 294 296
341 336 331 327 325 324 323 322 320 318 316 315 312 312 312 311 309 309 306 304 303 300 297 298 295 285 276 271 257 236 218 212 212 208 200 192 184 177 174 170 161 150 141 134 124 113 106 102 99 96 93 89 76 63 60 66 66 62 53 29 5 353 347 343 338 336 333 330 329 327 325 323 320 318 317 314 311 309 307 305 302 299 294 291 293
356 349 343 337 332 327 324 324 323 321 318 316 314 313 311 309 308 307 305 305 305 304 301 300 298 291 283 269 249 234 227 222 218 210 201 193 188 182 177 170 161 153 145 137 127 117 113 111 110 108 108 100 79 60 56 71 78 74 49 14 354 346 343 341 340 339 337 333 329 327 324 321 318 314 310 308 306 302 301 303 302 298 294 293 294
17 8 0 353 345 337 332 331 330 327 324 324 322 318 316 315 313 310 308 307 308 307 305 305 304 299 292 280 261 245 233 225 218 210 200 193 187 180 173 167 161 154 145 135 128 124 122 122 121 118 116 108 84 56 38 18 10 24 22 16 4 355 351 349 346 342 339 335 331 329 325 322 318 314 310 307 302 300 301 300 297 296 294 293 295
27 21 14 7 1 356 351 348 345 342 339 337 332 328 327 325 322 320 318 317 317 317 316 314 313 309 301 292 278 255 236 227 219 207 195 186 178 172 167 163 156 147 137 129 126 128 130 134 136 131 126 120 86 32 347 315 289 235 74 30 10 1 0 0 355 347 341 338 332 327 326 323 316 314 315 311 303 302 303 298 293 295 295 295 297
37 32 27 21 20 17 12 8 5 1 357 355 349 344 343 341 336 335 335 333 332 333 332 328 325 321 311 301 288 259 241 233 218 193 177 170 166 163 161 157 147 135 124 116 119 129 137 146 150 148 147 157 165 336 320 299 270 237 323 2 3 2 2 1 357 352 349 345 337 329 326 324 317 311 312 308 301 299 298 293 292 294 293 292 294
43 40 35 30 28 24 19 16 15 11 8 6 2 358 355 354 351 350 350 348 347 348 346 341 337 331 319 307 300 280 237 211 193 176 165 160 156 151 150 145 130 115 110 112 125 141 149 155 162 167 173 204 268 317 318 292 253 254 308 342 356 359 351 348 350 351 350 348 344 335 324 317 311 305 303 299 295 294 292 292 296 299 294 293 295
40 37 33 28 26 23 20 16 13 10 8 6 5 2 360 358 357 356 355 355 357 357 357 356 354 352 346 327 295 242 170 167 168 166 162 159 149 142 141 133 110 94 100 117 138 155 155 157 188 228 242 242 282 319 320 280 249 272 316 344 357 354 340 338 344 347 346 347 346 338 319 310 307 304 300 297 292 290 291 293 298 302 301 300 299